OBJECT AN, 57202

Orbit data source: Space-Track

You're viewing an Uncataloged Satellite

Recently launched and/or uncataloged satellites may have evolving metadata. Metadata may include but not limited to: Owner, Maufacturer, Bus, Motor, and Mission.

OBJECT AN, 57202 is a satellite in SSO that was launched on Tue, 27 Jun 2023 UTC via a SOYUZ-2-1B launch vehicle from the Vostochny Cosmodrome (VOSTO). Unknown objects in Earth's orbit typically refer to objects detected orbiting the Earth but have not yet been identified or cataloged. These objects could be anything from previously untracked satellites, spent rocket stages, debris from satellite collisions, or even natural meteoroids temporarily captured by Earth's gravity.

Loading next visibility...
Identifier
57202, 2023-091AN
Orbit
SSO
Country
Flag of TBDTBD
Related business
Flag of RUOOO Special Technological Center (RU)
Manufacturer
STTS/SPBPU
Mission
Operational Commercial Technology
Bus & Motor
CUBESAT 3U, Unknown motor
Mass
3 kg wet, 3 kg dry
Launch date (UTC)
2023-06-27 (3 years ago)
Launch vehicle
SOYUZ-2-1B
Launch site
Vostochny Cosmodrome (VOSTO)
Object type
Unknown
Shape & HBR
Box, 0.1 m
Radar Cross Section
0.035 m², Small (<0.1 m²)

Expand to show TLE details & history
Last TLE update: 6 hours ago

TLE from 6 hours ago
0 OBJECT AN
1 57202U 23091AN  26104.56461844  .00002802  00000-0  13899-3 0  9997
2 57202  97.5176 163.7400 0008717 339.4073  20.6809 15.18524822154302
Epoch: 2026-04-14T13:33Z
TLE epoch observation values (Epoch: 2026-04-14T13:33:03.033Z)
Latitude
0.00005°
Longitude
117.7383°
Altitude
507.765 km
Speed
7.613 km/s
True Right ascension
10h 54m 57s
True Declination
0° 00' 00"
Sunlit
Object was in full shadow at epoch
Visualization orbit readout
Latitude
Unknown
Longitude
Unknown
Altitude
Unknown
Speed
Unknown
Apparent Right ascension
Unknown
Apparent Declination
Unknown
Sunlit
N/A
Visualization observer readout
Local Sidereal Time
02:20:26
Azimuth
Unknown
Elevation
Unknown
Doppler factor
Unknown
Orbital elements
Apogee altitude
513.273 km
Perigee altitude
501.269 km
Semi-major axis
6,885.408 km
Eccentricity
0.00087
Inclination
97.5176°
RAAN
163.74°
Arg. of periapsis
339.4073°
True anomaly
20.71621°
Mean anomaly
20.6809°
Eccentric anomaly
20.69855°
Mean motion
3.79882 °/min
Orbital period
94.77 mins
BSTAR
0.00013899
Loading maneuver chart data...
Computing Atmospheric mass density...
Loading historical data...
Loading historical data...
Loading historical data...
Loading historical data...
Loading historical data...
Loading historical data...
Loading historical data...

Documentation

Showing up to 5 results
|